Santa Maria, CA

4:14 PM PDT on March 23, 2017 (GMT -0700)
Santa Maria Public Airport / Captain G. Allan Hancock Field

Weather History for KSMX - October, 2011

Change the Weather History Date:

Tuesday, October 4, 2011

  Actual Average Record
Temperature  
Mean Temperature 62 °F 62 °F  
Max Temperature 68 °F 74 °F 108 °F (1987)
Min Temperature 55 °F 51 °F 35 °F (1927)
Degree Days  
Heating Degree Days 3 4  
Month to date heating degree days 11 16  
Since 1 July heating degree days 166 233  
Cooling Degree Days 0 1  
Month to date cooling degree days 0 4  
Year to date cooling degree days 59 86  
Growing Degree Days 12 (Base 50)    
Moisture  
Dew Point 54 °F    
Average Humidity 76    
Maximum Humidity 93    
Minimum Humidity 58    
Precipitation  
Precipitation 0.06 in 0.01 in 0.71 in (1956)
Month to date precipitation 0.10 0.04  
Year to date precipitation 11.16 9.94  
Since 1 July precipitation 0.19  
Sea Level Pressure  
Sea Level Pressure 29.95 in    
Wind  
Wind Speed 7 mph (South)    
Max Wind Speed 14 mph    
Max Gust Speed -    
Visibility 8 miles    
Events Rain    
T = Trace of Precipitation, MM = Missing Value Source: NWS Daily Summary

Daily Weather History Graph

Daily Weather History Graph

Search for Another Location

Airport or City:

Trip Planner

Search our weather history database for the weather conditions in past years. The results will help you decide how hot, cold, wet, or windy it might be!

Date:

Astronomy

Oct. 04, 2011 Rise Set
Actual Time 6:58 AM PDT 6:41 PM PDT
Civil Twilight 6:33 AM PDT 7:07 PM PDT
Nautical Twilight 6:04 AM PDT 7:36 PM PDT
Astronomical Twilight 5:34 AM PDT 8:05 PM PDT
Moon 2:32 PM PDT (10/4) 12:03 AM PDT (10/4)
Length of Visible Light 12h 33m
Length of Day
11h 43m
First Quarter, 57% of the Moon is Illuminated
Oct 4
First Quarter
Oct 11
Full
Oct 19
Last Quarter
Oct 26
New
Nov 2
First Quarter

Hourly Weather History & Observations

Time (PDT) Temp. Dew Point Humidity Pressure Visibility Wind Dir Wind Speed Gust Speed Precip Events Conditions
12:04 AM 59.0 °F 55.4 °F 88% 29.94 in 10.0 mi ESE 3.5 mph - N/A   Overcast
12:51 AM 59.0 °F 55.0 °F 87% 29.94 in 6.0 mi South 3.5 mph - 0.00 in Rain Light Rain
1:44 AM 57.2 °F 53.6 °F 88% 29.93 in 2.5 mi SE 6.9 mph - 0.01 in Rain Rain
1:51 AM 57.0 °F 54.0 °F 89% 29.94 in 2.5 mi SE 6.9 mph - 0.02 in Rain Light Rain
1:58 AM 57.2 °F 53.6 °F 88% 29.93 in 6.0 mi SE 8.1 mph - 0.00 in Rain Light Rain
2:51 AM 57.9 °F 53.1 °F 84% 29.93 in 4.0 mi SE 5.8 mph - 0.01 in Rain Rain
3:51 AM 57.9 °F 53.1 °F 84% 29.92 in 10.0 mi SSE 6.9 mph - 0.00 in   Overcast
4:51 AM 57.9 °F 54.0 °F 87% 29.92 in 6.0 mi South 5.8 mph - N/A   Overcast
5:19 AM 57.2 °F 53.6 °F 88% 29.93 in 3.0 mi Calm Calm - 0.00 in Rain Light Rain
5:23 AM 57.2 °F 53.6 °F 88% 29.93 in 1.8 mi Calm Calm - 0.01 in Rain Rain
5:40 AM 57.2 °F 53.6 °F 88% 29.93 in 3.0 mi SSE 3.5 mph - 0.03 in Rain Light Rain
5:51 AM 57.0 °F 54.0 °F 89% 29.94 in 6.0 mi SE 3.5 mph - 0.03 in   Overcast
6:51 AM 57.9 °F 55.0 °F 90% 29.96 in 9.0 mi SSE 4.6 mph - 0.00 in   Mostly Cloudy
7:51 AM 59.0 °F 55.9 °F 90% 29.96 in 9.0 mi South 4.6 mph - N/A   Mostly Cloudy
8:51 AM 61.0 °F 55.9 °F 83% 29.96 in 10.0 mi Calm Calm - N/A   Overcast
9:51 AM 62.1 °F 55.9 °F 80% 29.97 in 10.0 mi WNW 9.2 mph - N/A   Overcast
10:51 AM 62.1 °F 55.0 °F 78% 29.97 in 10.0 mi WNW 6.9 mph - N/A   Overcast
11:02 AM - - N/A% - - North - - N/A   Unknown
11:51 AM 64.9 °F 55.9 °F 73% 29.97 in 10.0 mi NW 10.4 mph - N/A   Mostly Cloudy
12:51 PM 66.0 °F 53.1 °F 63% 29.97 in 10.0 mi NW 12.7 mph - N/A   Mostly Cloudy
1:15 PM 66.2 °F 53.6 °F 64% 29.97 in 10.0 mi NW 13.8 mph - N/A   Overcast
1:51 PM 68.0 °F 54.0 °F 61% 29.97 in 10.0 mi NW 12.7 mph - N/A   Scattered Clouds
2:51 PM 64.9 °F 53.1 °F 65% 29.97 in 10.0 mi NW 11.5 mph - N/A   Mostly Cloudy
3:51 PM 66.0 °F 52.0 °F 60% 29.96 in 10.0 mi WNW 13.8 mph - N/A   Mostly Cloudy
4:51 PM 64.9 °F 51.1 °F 61% 29.95 in 10.0 mi NW 9.2 mph - N/A   Mostly Cloudy
5:51 PM 63.0 °F 51.1 °F 65% 29.96 in 10.0 mi WNW 10.4 mph - N/A   Mostly Cloudy
6:51 PM 60.1 °F 52.0 °F 75% 29.96 in 10.0 mi NW 3.5 mph - N/A   Mostly Cloudy
7:51 PM 59.0 °F 52.0 °F 78% 29.94 in 9.0 mi Calm Calm - N/A   Clear
8:51 PM 57.0 °F 51.1 °F 81% 29.96 in 9.0 mi Calm Calm - N/A   Clear
9:51 PM 57.0 °F 52.0 °F 83% 29.97 in 9.0 mi ESE 3.5 mph - N/A   Overcast
10:51 PM 57.9 °F 52.0 °F 81% 29.94 in 10.0 mi SE 5.8 mph - N/A   Overcast
11:51 PM 59.0 °F 52.0 °F 78% 29.92 in 10.0 mi SSE 5.8 mph - N/A   Overcast